User: anonymous   Login
Location: Colle Santa Colomba
(42.0333°N, 12.5667°E)
Time: 10:33:44
(UTC+00:00)
Language:

CZ-2C R/B - Orbit

View from above orbital plane
View from above orbital plane
View from above satellite
View from above satellite

Ground track
Ground track

The orbit data is extracted from the following two-line orbital elements,

1 31114U 07010B   22025.52652925  .00000041  00000-0  37571-4 0  9997
2 31114  98.2290 208.6202 0059579 356.0403   4.0296 14.19388487766292
Epoch (UTC): 25 January 2022 12:38:12
Eccentricity: 0.0059579
inclination: 98.2290°
perigee height: 784 km
apogee height: 870 km
right ascension of ascending node: 208.6202°
argument of perigee: 356.0403°
revolutions per day: 14.19388487
mean anomaly at epoch: 4.0296°
orbit number at epoch: 76629

The dashed part of the orbit path shows where the satellite is in the earth's shadow,  

DLR